| time (UTC) | temp C | wind direction | speed KPH | gust KPH | rain 1hr cm | rain 24hr cm | rain mn cm | humidity % | barometer mb |
| 20260505101851 | 5 | 29 | 6.4 | 11.3 | 0.18 | 0.03 | 0.03 | 96 | 1014.4 |
| 20260505101345 | 5 | 339 | 4.8 | 8.0 | 0.18 | 0.03 | 0.03 | 96 | 1014.2 |
| 20260505100841 | 5 | 25 | 1.6 | 3.2 | 0.18 | 0.03 | 0.03 | 96 | 1014.2 |
| 20260505100338 | 5 | 31 | 3.2 | 8.0 | 0.00 | 0.00 | 0.00 | 96 | 1014.2 |
| 20260505095834 | 5 | 309 | 4.8 | 8.0 | 0.00 | 0.00 | 0.00 | 96 | 1014.3 |
| 20260505095332 | 5 | 3 | 8.0 | 11.3 | 0.00 | 0.00 | 0.00 | 96 | 1014.3 |
| 20260505094828 | 5 | 322 | 9.7 | 17.7 | 0.00 | 0.00 | 0.00 | 96 | 1014.3 |
| 20260505094325 | 5 | 19 | 6.4 | 8.0 | 0.00 | 0.00 | 0.00 | 96 | 1013.9 |
| 20260505093820 | 5 | 315 | 6.4 | 9.7 | 0.00 | 0.00 | 0.00 | 96 | 1014.0 |
| 20260505093318 | 5 | 357 | 6.4 | 9.7 | 0.00 | 0.00 | 0.00 | 96 | 1014.3 |
| 20260505092814 | 5 | 314 | 4.8 | 8.0 | 0.00 | 0.00 | 0.00 | 96 | 1014.2 |
| 20260505092313 | 5 | 20 | 0.0 | 1.6 | 0.00 | 0.00 | 0.00 | 96 | 1014.3 |
| 20260505091810 | 5 | 27 | 0.0 | 0.0 | 0.00 | 0.00 | 0.00 | 96 | 1014.2 |
| 20260505091308 | 5 | 243 | 6.4 | 8.0 | 0.00 | 0.00 | 0.00 | 96 | 1013.9 |
| 20260505090806 | 5 | 249 | 8.0 | 8.0 | 0.00 | 0.00 | 0.00 | 96 | 1014.0 |
| 20260505090304 | 5 | 339 | 4.8 | 4.8 | 0.00 | 0.00 | 0.00 | 96 | 1013.9 |
| 20260505085801 | 5 | 352 | 9.7 | 12.9 | 0.00 | 0.00 | 0.00 | 97 | 1013.9 |
| 20260505085259 | 6 | 356 | 9.7 | 14.5 | 0.00 | 0.00 | 0.00 | 97 | 1013.9 |
| 20260505084756 | 7 | 330 | 8.0 | 12.9 | 0.00 | 0.00 | 0.00 | 97 | 1013.7 |
| 20260505084255 | 7 | 23 | 0.0 | 0.0 | 0.00 | 0.00 | 0.00 | 98 | 1013.7 |
| 20260505083751 | 7 | 23 | 0.0 | 1.6 | 0.00 | 0.00 | 0.00 | 98 | 1013.8 |
| 20260505083248 | 7 | 21 | 0.0 | 0.0 | 0.00 | 0.00 | 0.00 | 98 | 1013.8 |
| 20260505082744 | 7 | 23 | 0.0 | 0.0 | 0.00 | 0.00 | 0.00 | 98 | 1014.0 |
| 20260505082242 | 7 | 21 | 0.0 | 0.0 | 0.00 | 0.00 | 0.00 | 98 | 1013.9 |
| 20260505081737 | 7 | 22 | 0.0 | 0.0 | 0.00 | 0.00 | 0.00 | 98 | 1013.6 |
| 20260505081235 | 7 | 22 | 0.0 | 0.0 | 0.00 | 0.00 | 0.00 | 98 | 1013.8 |
| 20260505080732 | 7 | 23 | 0.0 | 0.0 | 0.00 | 0.00 | 0.00 | 98 | 1013.9 |
| 20260505080227 | 7 | 24 | 0.0 | 0.0 | 0.00 | 0.00 | 0.00 | 97 | 1013.9 |
| 20260505075723 | 7 | 25 | 0.0 | 0.0 | 0.00 | 0.00 | 0.00 | 97 | 1013.8 |
| 20260505075221 | 7 | 25 | 0.0 | 0.0 | 0.00 | 0.00 | 0.00 | 97 | 1013.6 |
| 20260505074718 | 7 | 17 | 0.0 | 0.0 | 0.00 | 0.00 | 0.00 | 97 | 1013.9 |
| 20260505074215 | 7 | 24 | 0.0 | 0.0 | 0.00 | 0.00 | 0.00 | 97 | 1013.8 |
| 20260505073712 | 7 | 23 | 0.0 | 0.0 | 0.00 | 0.00 | 0.00 | 97 | 1013.8 |
| 20260505073210 | 7 | 22 | 0.0 | 0.0 | 0.00 | 0.00 | 0.00 | 97 | 1013.9 |
| 20260505072706 | 7 | 43 | 1.6 | 1.6 | 0.00 | 0.00 | 0.00 | 97 | 1013.8 |
| 20260505072202 | 7 | 33 | 0.0 | 0.0 | 0.00 | 0.00 | 0.00 | 97 | 1013.8 |
| 20260505071658 | 7 | 32 | 0.0 | 0.0 | 0.00 | 0.00 | 0.00 | 97 | 1013.8 |
| 20260505071155 | 7 | 31 | 0.0 | 0.0 | 0.00 | 0.00 | 0.00 | 97 | 1014.2 |
| 20260505070653 | 7 | 27 | 0.0 | 0.0 | 0.00 | 0.00 | 0.00 | 97 | 1014.2 |
| 20260505070149 | 7 | 27 | 0.0 | 0.0 | 0.00 | 0.00 | 0.00 | 97 | 1014.2 |
| 20260505065645 | 7 | 27 | 0.0 | 0.0 | 0.00 | 0.00 | 0.00 | 97 | 1014.0 |
| 20260505065142 | 7 | 27 | 0.0 | 0.0 | 0.00 | 0.00 | 0.00 | 97 | 1014.2 |
| 20260505064638 | 7 | 25 | 0.0 | 0.0 | 0.00 | 0.00 | 0.00 | 97 | 1014.4 |
| 20260505064137 | 7 | 26 | 0.0 | 0.0 | 0.00 | 0.00 | 0.00 | 97 | 1014.2 |
| 20260505063634 | 7 | 35 | 0.0 | 0.0 | 0.00 | 0.00 | 0.00 | 97 | 1014.2 |
| 20260505063130 | 7 | 32 | 0.0 | 0.0 | 0.00 | 0.00 | 0.00 | 97 | 1014.4 |
| 20260505062626 | 7 | 30 | 0.0 | 0.0 | 0.00 | 0.00 | 0.00 | 97 | 1014.3 |
| 20260505062124 | 7 | 30 | 0.0 | 0.0 | 0.00 | 0.00 | 0.00 | 97 | 1014.3 |
| 20260505061621 | 7 | 30 | 0.0 | 0.0 | 0.00 | 0.00 | 0.00 | 97 | 1014.3 |
| 20260505061119 | 7 | 27 | 0.0 | 0.0 | 0.00 | 0.00 | 0.00 | 97 | 1014.4 |
| 20260505060616 | 7 | 28 | 0.0 | 0.0 | 0.00 | 0.00 | 0.00 | 97 | 1014.3 |
| 20260505060113 | 7 | 28 | 0.0 | 0.0 | 0.00 | 0.00 | 0.00 | 97 | 1014.4 |
| 20260505055608 | 7 | 29 | 0.0 | 0.0 | 0.00 | 0.36 | 0.36 | 97 | 1014.3 |
| 20260505055105 | 7 | 29 | 0.0 | 0.0 | 0.00 | 0.36 | 0.36 | 97 | 1014.2 |
| 20260505054602 | 7 | 27 | 0.0 | 0.0 | 0.00 | 0.36 | 0.36 | 96 | 1014.3 |
| 20260505054101 | 7 | 25 | 0.0 | 0.0 | 0.00 | 0.36 | 0.36 | 96 | 1014.3 |
| 20260505053557 | 7 | 26 | 0.0 | 0.0 | 0.00 | 0.36 | 0.36 | 96 | 1014.2 |
| 20260505053054 | 7 | 31 | 0.0 | 0.0 | 0.00 | 0.36 | 0.36 | 96 | 1014.2 |
| 20260505052550 | 7 | 31 | 0.0 | 0.0 | 0.00 | 0.36 | 0.36 | 96 | 1014.2 |
| 20260505052048 | 7 | 31 | 0.0 | 0.0 | 0.00 | 0.36 | 0.36 | 96 | 1014.3 |
| 20260505051545 | 7 | 31 | 0.0 | 0.0 | 0.00 | 0.36 | 0.36 | 96 | 1014.0 |
| 20260505051043 | 7 | 25 | 0.0 | 0.0 | 0.00 | 0.36 | 0.36 | 95 | 1014.5 |
| 20260505050541 | 7 | 25 | 0.0 | 0.0 | 0.00 | 0.36 | 0.36 | 95 | 1014.6 |
| 20260505041509 | 7 | 22 | 0.0 | 0.0 | 0.13 | 0.36 | 0.36 | 94 | 1014.7 |
| 20260505041006 | 8 | 11 | 0.0 | 1.6 | 0.00 | 0.33 | 0.33 | 94 | 1015.0 |
| 20260505040503 | 7 | 16 | 0.0 | 1.6 | 0.18 | 0.33 | 0.33 | 94 | 1015.1 |
| 20260505040000 | 7 | 21 | 0.0 | 0.0 | 0.18 | 0.33 | 0.33 | 93 | 1014.7 |
| 20260505035456 | 7 | 25 | 0.0 | 0.0 | 0.00 | 0.30 | 0.30 | 93 | 1014.7 |
| 20260505034953 | 7 | 24 | 0.0 | 0.0 | 0.13 | 0.30 | 0.30 | 93 | 1014.6 |
| 20260505034450 | 7 | 19 | 0.0 | 0.0 | 0.13 | 0.30 | 0.30 | 92 | 1014.7 |
| 20260505033947 | 8 | 19 | 3.2 | 4.8 | 0.18 | 0.28 | 0.28 | 92 | 1014.7 |
| 20260505033443 | 8 | 24 | 0.0 | 0.0 | 0.30 | 0.28 | 0.28 | 91 | 1015.0 |
| 20260505032942 | 8 | 355 | 3.2 | 4.8 | 0.43 | 0.25 | 0.25 | 90 | 1015.1 |
| 20260505032439 | 8 | 18 | 1.6 | 1.6 | 0.30 | 0.23 | 0.23 | 90 | 1014.7 |
| 20260505031935 | 8 | 24 | 0.0 | 0.0 | 0.30 | 0.20 | 0.20 | 88 | 1014.5 |
| 20260505031432 | 9 | 333 | 1.6 | 3.2 | 0.18 | 0.18 | 0.18 | 86 | 1014.4 |
| 20260505030929 | 10 | 331 | 3.2 | 4.8 | 0.18 | 0.15 | 0.15 | 83 | 1014.2 |
| 20260505030425 | 10 | 0 | 4.8 | 4.8 | 0.18 | 0.15 | 0.15 | 80 | 1014.2 |
| 20260505025920 | 10 | 23 | 0.0 | 0.0 | 0.00 | 0.13 | 0.13 | 81 | 1014.2 |
| 20260505025418 | 10 | 6 | 4.8 | 9.7 | 0.00 | 0.13 | 0.13 | 82 | 1014.0 |
| 20260505024917 | 10 | 15 | 1.6 | 1.6 | 0.00 | 0.13 | 0.13 | 81 | 1013.7 |
| 20260505024414 | 10 | 350 | 1.6 | 3.2 | 0.00 | 0.13 | 0.13 | 80 | 1013.7 |
| 20260505023911 | 10 | 13 | 1.6 | 3.2 | 0.00 | 0.13 | 0.13 | 81 | 1013.6 |
| 20260505023408 | 10 | 19 | 1.6 | 1.6 | 0.00 | 0.13 | 0.13 | 81 | 1013.6 |
| 20260505022905 | 10 | 15 | 1.6 | 3.2 | 0.00 | 0.13 | 0.13 | 86 | 1013.2 |
| 20260505022402 | 10 | 14 | 1.6 | 1.6 | 0.00 | 0.13 | 0.13 | 92 | 1013.1 |
| 20260505021859 | 10 | 26 | 0.0 | 0.0 | 0.00 | 0.13 | 0.13 | 91 | 1013.0 |
| 20260505021355 | 10 | 26 | 0.0 | 0.0 | 0.00 | 0.13 | 0.13 | 91 | 1013.1 |
| 20260505020852 | 10 | 26 | 0.0 | 0.0 | 0.00 | 0.13 | 0.13 | 90 | 1012.9 |
| 20260505020347 | 10 | 26 | 0.0 | 0.0 | 0.00 | 0.13 | 0.13 | 90 | 1012.7 |
| 20260505015844 | 10 | 26 | 0.0 | 0.0 | 0.00 | 0.13 | 0.13 | 90 | 1013.1 |
| 20260505015341 | 10 | 26 | 0.0 | 0.0 | 0.00 | 0.13 | 0.13 | 89 | 1013.0 |
| 20260505014839 | 10 | 26 | 0.0 | 0.0 | 0.00 | 0.13 | 0.13 | 89 | 1013.0 |
| 20260505014336 | 10 | 8 | 0.0 | 0.0 | 0.00 | 0.13 | 0.13 | 89 | 1012.9 |
| 20260505013832 | 10 | 18 | 0.0 | 0.0 | 0.00 | 0.13 | 0.13 | 89 | 1012.6 |
| 20260505013329 | 10 | 18 | 0.0 | 0.0 | 0.00 | 0.13 | 0.13 | 88 | 1012.7 |
| 20260505012828 | 10 | 17 | 0.0 | 0.0 | 0.00 | 0.13 | 0.13 | 88 | 1012.6 |
| 20260505012325 | 10 | 20 | 0.0 | 0.0 | 0.00 | 0.13 | 0.13 | 87 | 1012.7 |
| 20260505011821 | 10 | 26 | 0.0 | 0.0 | 0.00 | 0.13 | 0.13 | 86 | 1013.0 |
| 20260505011318 | 10 | 33 | 0.0 | 0.0 | 0.00 | 0.13 | 0.13 | 85 | 1012.7 |
| 20260505010814 | 10 | 39 | 0.0 | 0.0 | 0.00 | 0.13 | 0.13 | 86 | 1012.7 |
| 20260505010310 | 10 | 21 | 0.0 | 0.0 | 0.00 | 0.13 | 0.13 | 87 | 1012.5 |
| 20260505005806 | 10 | 19 | 0.0 | 0.0 | 0.00 | 0.13 | 0.13 | 88 | 1012.6 |
| 20260505005304 | 10 | 26 | 0.0 | 0.0 | 0.00 | 0.13 | 0.13 | 87 | 1012.5 |
| 20260505004801 | 10 | 37 | 0.0 | 0.0 | 0.00 | 0.13 | 0.13 | 87 | 1012.7 |
| 20260505004256 | 10 | 28 | 0.0 | 0.0 | 0.13 | 0.13 | 0.13 | 86 | 1012.9 |
| 20260505003754 | 10 | 23 | 0.0 | 0.0 | 0.43 | 0.13 | 0.13 | 83 | 1012.9 |
| 20260505003252 | 10 | 27 | 0.0 | 0.0 | 0.48 | 0.10 | 0.10 | 76 | 1013.3 |
| 20260505002748 | 11 | 18 | 0.0 | 1.6 | 0.30 | 0.05 | 0.05 | 75 | 1013.4 |
| 20260505002245 | 11 | 24 | 1.6 | 1.6 | 0.13 | 0.03 | 0.03 | 66 | 1013.3 |
| 20260505001743 | 13 | 326 | 9.7 | 12.9 | 0.00 | 0.00 | 0.00 | 64 | 1013.3 |
| 20260505001240 | 15 | 328 | 4.8 | 4.8 | 0.00 | 0.00 | 0.00 | 52 | 1012.7 |
| 20260505000737 | 15 | 261 | 3.2 | 4.8 | 0.00 | 0.00 | 0.00 | 45 | 1012.6 |
| 20260505000235 | 15 | 231 | 3.2 | 4.8 | 0.00 | 0.00 | 0.00 | 45 | 1012.4 |
| 20260504235731 | 15 | 26 | 3.2 | 3.2 | 0.00 | 0.00 | 0.00 | 46 | 1012.4 |
| 20260504235227 | 15 | 2 | 1.6 | 3.2 | 0.00 | 0.00 | 0.00 | 46 | 1012.1 |
| 20260504234725 | 15 | 9 | 6.4 | 9.7 | 0.00 | 0.00 | 0.00 | 44 | 1012.1 |
| 20260504234222 | 15 | 278 | 4.8 | 4.8 | 0.00 | 0.00 | 0.00 | 44 | 1012.0 |
| 20260504233718 | 15 | 349 | 4.8 | 4.8 | 0.00 | 0.00 | 0.00 | 44 | 1012.0 |
| 20260504233214 | 15 | 13 | 4.8 | 4.8 | 0.00 | 0.00 | 0.00 | 43 | 1011.9 |
| 20260504232711 | 15 | 356 | 6.4 | 8.0 | 0.00 | 0.00 | 0.00 | 44 | 1011.8 |
| 20260504232208 | 15 | 16 | 3.2 | 3.2 | 0.00 | 0.00 | 0.00 | 44 | 1011.7 |
| 20260504231705 | 15 | 331 | 3.2 | 3.2 | 0.00 | 0.00 | 0.00 | 44 | 1011.7 |
| 20260504231201 | 15 | 10 | 4.8 | 4.8 | 0.00 | 0.00 | 0.00 | 44 | 1011.6 |
| 20260504230657 | 16 | 11 | 4.8 | 4.8 | 0.00 | 0.00 | 0.00 | 42 | 1011.7 |
| 20260504230156 | 16 | 13 | 1.6 | 3.2 | 0.00 | 0.00 | 0.00 | 40 | 1011.4 |
| 20260504225654 | 16 | 353 | 4.8 | 8.0 | 0.00 | 0.00 | 0.00 | 39 | 1011.4 |
| 20260504225150 | 17 | 10 | 8.0 | 9.7 | 0.00 | 0.00 | 0.00 | 39 | 1011.3 |
| 20260504224648 | 17 | 22 | 3.2 | 4.8 | 0.00 | 0.00 | 0.00 | 39 | 1011.3 |
| 20260504224144 | 18 | 353 | 8.0 | 11.3 | 0.00 | 0.00 | 0.00 | 38 | 1011.3 |
| 20260504223641 | 17 | 332 | 3.2 | 4.8 | 0.00 | 0.00 | 0.00 | 35 | 1011.3 |
| 20260504223137 | 17 | 354 | 6.4 | 9.7 | 0.00 | 0.00 | 0.00 | 40 | 1011.2 |
| 20260504222634 | 16 | 2 | 12.9 | 16.1 | 0.00 | 0.00 | 0.00 | 39 | 1011.4 |
| 20260504222131 | 16 | 300 | 8.0 | 9.7 | 0.00 | 0.00 | 0.00 | 39 | 1011.3 |
| 20260504221628 | 16 | 26 | 3.2 | 3.2 | 0.00 | 0.00 | 0.00 | 38 | 1011.2 |
| 20260504221125 | 16 | 47 | 1.6 | 3.2 | 0.00 | 0.00 | 0.00 | 37 | 1011.2 |
| 20260504220621 | 16 | 339 | 8.0 | 11.3 | 0.00 | 0.00 | 0.00 | 37 | 1011.0 |
| 20260504220120 | 16 | 0 | 3.2 | 3.2 | 0.00 | 0.00 | 0.00 | 39 | 1011.0 |
| 20260504215615 | 17 | 21 | 6.4 | 8.0 | 0.00 | 0.00 | 0.00 | 35 | 1010.7 |
| 20260504215113 | 18 | 3 | 8.0 | 8.0 | 0.00 | 0.00 | 0.00 | 33 | 1010.6 |
| 20260504214609 | 19 | 9 | 1.6 | 1.6 | 0.00 | 0.00 | 0.00 | 27 | 1010.6 |
| 20260504214105 | 19 | 27 | 0.0 | 0.0 | 0.00 | 0.00 | 0.00 | 28 | 1010.3 |
| 20260504213602 | 20 | 84 | 0.0 | 1.6 | 0.00 | 0.00 | 0.00 | 28 | 1010.1 |
| 20260504213059 | 20 | 37 | 0.0 | 1.6 | 0.00 | 0.00 | 0.00 | 28 | 1009.9 |
| 20260504212554 | 20 | 27 | 0.0 | 0.0 | 0.00 | 0.00 | 0.00 | 28 | 1010.1 |
| 20260504212052 | 20 | 22 | 3.2 | 4.8 | 0.00 | 0.00 | 0.00 | 29 | 1010.3 |
| 20260504211549 | 20 | 32 | 0.0 | 0.0 | 0.00 | 0.00 | 0.00 | 28 | 1010.3 |
| 20260504211045 | 21 | 7 | 3.2 | 3.2 | 0.00 | 0.00 | 0.00 | 26 | 1010.4 |
| 20260504210543 | 21 | 28 | 0.0 | 1.6 | 0.00 | 0.00 | 0.00 | 26 | 1010.5 |
| 20260504210039 | 21 | 22 | 4.8 | 4.8 | 0.00 | 0.00 | 0.00 | 27 | 1010.6 |
| 20260504205537 | 20 | 347 | 3.2 | 3.2 | 0.00 | 0.00 | 0.00 | 29 | 1010.7 |
| 20260504205035 | 21 | 22 | 1.6 | 1.6 | 0.00 | 0.00 | 0.00 | 30 | 1010.8 |
| 20260504204533 | 21 | 20 | 4.8 | 4.8 | 0.00 | 0.00 | 0.00 | 28 | 1011.2 |
| 20260504204032 | 21 | 344 | 8.0 | 11.3 | 0.00 | 0.00 | 0.00 | 29 | 1011.2 |
| 20260504203529 | 20 | 22 | 0.0 | 1.6 | 0.00 | 0.00 | 0.00 | 30 | 1011.2 |
| 20260504203027 | 20 | 22 | 1.6 | 1.6 | 0.00 | 0.00 | 0.00 | 31 | 1011.6 |
| 20260504202522 | 20 | 353 | 8.0 | 11.3 | 0.00 | 0.00 | 0.00 | 30 | 1011.4 |
| 20260504202019 | 20 | 9 | 8.0 | 11.3 | 0.00 | 0.00 | 0.00 | 31 | 1011.4 |
| 20260504201516 | 20 | 346 | 3.2 | 3.2 | 0.00 | 0.00 | 0.00 | 32 | 1011.6 |
| 20260504201014 | 19 | 337 | 4.8 | 8.0 | 0.00 | 0.00 | 0.00 | 32 | 1011.4 |
| 20260504200510 | 18 | 19 | 3.2 | 3.2 | 0.00 | 0.00 | 0.00 | 32 | 1011.4 |
| 20260504200007 | 18 | 5 | 6.4 | 8.0 | 0.00 | 0.00 | 0.00 | 33 | 1011.7 |
| 20260504195503 | 17 | 277 | 4.8 | 8.0 | 0.00 | 0.00 | 0.00 | 35 | 1011.3 |
| 20260504195000 | 17 | 21 | 1.6 | 1.6 | 0.00 | 0.00 | 0.00 | 37 | 1011.6 |
| 20260504194455 | 17 | 20 | 3.2 | 3.2 | 0.00 | 0.00 | 0.00 | 37 | 1011.4 |
| 20260504193951 | 17 | 34 | 1.6 | 3.2 | 0.00 | 0.00 | 0.00 | 37 | 1011.6 |
| 20260504193449 | 17 | 25 | 1.6 | 1.6 | 0.00 | 0.00 | 0.00 | 40 | 1011.6 |
| 20260504192948 | 16 | 26 | 1.6 | 3.2 | 0.00 | 0.00 | 0.00 | 38 | 1011.7 |
| 20260504192444 | 16 | 1 | 1.6 | 3.2 | 0.00 | 0.00 | 0.00 | 39 | 1011.7 |
| 20260504191943 | 16 | 30 | 0.0 | 0.0 | 0.00 | 0.00 | 0.00 | 43 | 1012.0 |
| 20260504191441 | 16 | 30 | 0.0 | 0.0 | 0.00 | 0.00 | 0.00 | 39 | 1012.4 |
| 20260504190936 | 17 | 308 | 6.4 | 8.0 | 0.00 | 0.00 | 0.00 | 33 | 1012.4 |
| 20260504190432 | 17 | 312 | 1.6 | 3.2 | 0.00 | 0.00 | 0.00 | 32 | 1012.0 |
| 20260504185929 | 17 | 35 | 3.2 | 3.2 | 0.00 | 0.00 | 0.00 | 32 | 1012.0 |
| 20260504185426 | 18 | 33 | 0.0 | 1.6 | 0.00 | 0.00 | 0.00 | 31 | 1012.0 |
| 20260504184921 | 19 | 110 | 4.8 | 11.3 | 0.00 | 0.00 | 0.00 | 28 | 1011.6 |
| 20260504184417 | 19 | 28 | 0.0 | 0.0 | 0.00 | 0.00 | 0.00 | 26 | 1011.3 |
| 20260504183914 | 19 | 25 | 0.0 | 0.0 | 0.00 | 0.00 | 0.00 | 24 | 1011.1 |
| 20260504183411 | 20 | 85 | 4.8 | 4.8 | 0.00 | 0.00 | 0.00 | 24 | 1010.8 |
| 20260504182909 | 20 | 29 | 0.0 | 0.0 | 0.00 | 0.00 | 0.00 | 26 | 1011.0 |
| 20260504182406 | 20 | 19 | 0.0 | 1.6 | 0.00 | 0.00 | 0.00 | 26 | 1010.7 |
| 20260504181903 | 20 | 24 | 3.2 | 3.2 | 0.00 | 0.00 | 0.00 | 25 | 1010.8 |
| 20260504181400 | 20 | 79 | 1.6 | 3.2 | 0.00 | 0.00 | 0.00 | 26 | 1010.7 |
| 20260504180859 | 21 | 17 | 0.0 | 0.0 | 0.00 | 0.00 | 0.00 | 25 | 1011.0 |
| 20260504180357 | 21 | 35 | 0.0 | 0.0 | 0.00 | 0.00 | 0.00 | 25 | 1010.8 |
| 20260504175855 | 21 | 22 | 3.2 | 3.2 | 0.00 | 0.00 | 0.00 | 24 | 1011.0 |
| 20260504175351 | 22 | 9 | 3.2 | 3.2 | 0.00 | 0.00 | 0.00 | 24 | 1011.0 |
| 20260504174849 | 21 | 21 | 1.6 | 1.6 | 0.00 | 0.00 | 0.00 | 24 | 1010.7 |
| 20260504174346 | 21 | 355 | 3.2 | 4.8 | 0.00 | 0.00 | 0.00 | 23 | 1010.8 |
| 20260504173843 | 21 | 1 | 3.2 | 3.2 | 0.00 | 0.00 | 0.00 | 24 | 1011.1 |
| 20260504173340 | 22 | 353 | 3.2 | 3.2 | 0.00 | 0.00 | 0.00 | 22 | 1011.2 |
| 20260504172837 | 23 | 23 | 0.0 | 1.6 | 0.00 | 0.00 | 0.00 | 24 | 1011.3 |
| 20260504172334 | 22 | 22 | 0.0 | 0.0 | 0.00 | 0.00 | 0.00 | 24 | 1011.4 |
| 20260504171829 | 22 | 322 | 3.2 | 9.7 | 0.00 | 0.00 | 0.00 | 23 | 1011.3 |
| 20260504171327 | 22 | 355 | 6.4 | 8.0 | 0.00 | 0.00 | 0.00 | 22 | 1011.4 |
| 20260504170824 | 21 | 4 | 0.0 | 1.6 | 0.00 | 0.00 | 0.00 | 23 | 1011.4 |
| 20260504170321 | 22 | 21 | 1.6 | 3.2 | 0.00 | 0.00 | 0.00 | 23 | 1011.6 |
| 20260504160239 | 20 | 354 | 3.2 | 4.8 | 0.00 | 0.00 | 0.00 | 26 | 1012.1 |
| 20260504150704 | 18 | 4 | 3.2 | 3.2 | 0.00 | 0.00 | 0.00 | 27 | 1012.5 |
| 20260504150201 | 18 | 3 | 4.8 | 8.0 | 0.00 | 0.00 | 0.00 | 27 | 1012.4 |
| 20260504141130 | 11 | 29 | 0.0 | 0.0 | 0.00 | 0.00 | 0.00 | 46 | 1012.7 |
| 20260504140627 | 11 | 28 | 0.0 | 0.0 | 0.00 | 0.00 | 0.00 | 51 | 1012.9 |
| 20260504140122 | 10 | 18 | 0.0 | 0.0 | 0.00 | 0.00 | 0.00 | 52 | 1012.6 |
| 20260504130551 | 7 | 25 | 0.0 | 0.0 | 0.00 | 0.00 | 0.00 | 52 | 1012.4 |
| 20260504110438 | 7 | 6 | 0.0 | 0.0 | 0.00 | 0.00 | 0.00 | 48 | 1012.3 |